Location: *
(2.5500°S, 65.9667°W)
Time: 10:52:40
(UTC+00:00)

DELTA-4 R/B - Pass Details

Date: 22 May 2022
Orbit: 448 x 34502 km, 13.4° (Epoch: 30 June)

Event Time Altitude Azimuth Distance (km) Brightness Sun altitude
Rises 03:11:31 0° 255° (WSW) 8,413 8.5 -65.5°
Reaches altitude 10° 03:15:09 10° 254° (WSW) 8,475 8.3 -66.1°
Maximum altitude 05:05:57 77° 258° (WSW) 25,326 10.1 -69.0°
Drops below altitude 10° 12:47:58 10° 66° (ENE) 4,275 8.3 33.1°
Sets 12:49:53 0° 72° (ENE) 4,662 8.1 33.5°
